Time,TemperatureF,DewpointF,PressureIn,WindDirection,WindDirectionDegrees,WindSpeedMPH,WindSpeedGustMPH,Humidity,HourlyPrecipIn,Conditions,Clouds,dailyrainin,SoftwareType,DateUTC
2013-06-30 00:00:00,73.0,66.1,29.52,East,90,0.0,-999.0,79,-99.99,,,0.00,Acu-Link.com,2013-06-30 04:00:00,
2013-06-30 00:15:00,72.9,66.4,29.51,ESE,112,0.0,-999.0,80,-99.99,,,0.00,Acu-Link.com,2013-06-30 04:15:00,
2013-06-30 00:30:00,72.7,66.5,29.51,ESE,112,0.0,-999.0,81,-99.99,,,0.00,Acu-Link.com,2013-06-30 04:30:00,
2013-06-30 00:46:00,72.5,66.3,29.52,East,90,0.0,-999.0,81,-99.99,,,0.00,Acu-Link.com,2013-06-30 04:46:00,
2013-06-30 01:01:00,72.5,66.7,29.52,ESE,112,0.0,-999.0,82,-99.99,,,0.00,Acu-Link.com,2013-06-30 05:01:00,
2013-06-30 01:16:00,72.5,66.7,29.52,ESE,112,0.0,-999.0,82,-99.99,,,0.00,Acu-Link.com,2013-06-30 05:16:00,
2013-06-30 01:31:00,72.5,66.7,29.52,ENE,67,0.0,-999.0,82,-99.99,,,0.00,Acu-Link.com,2013-06-30 05:31:00,
2013-06-30 01:46:00,72.5,67.0,29.52,ESE,112,0.0,-999.0,83,-99.99,,,0.00,Acu-Link.com,2013-06-30 05:46:00,
2013-06-30 02:01:00,72.0,66.2,29.52,East,90,0.0,-999.0,82,-99.99,,,0.00,Acu-Link.com,2013-06-30 06:01:00,
2013-06-30 02:17:00,71.6,65.8,29.53,East,90,0.0,-999.0,82,-99.99,,,0.00,Acu-Link.com,2013-06-30 06:17:00,
2013-06-30 02:32:00,71.2,65.8,29.53,ESE,112,0.0,-999.0,83,-99.99,,,0.00,Acu-Link.com,2013-06-30 06:32:00,
2013-06-30 02:47:00,71.1,66.0,29.52,SE,135,0.0,-999.0,84,-99.99,,,0.00,Acu-Link.com,2013-06-30 06:47:00,
2013-06-30 03:02:00,70.9,66.2,29.53,East,90,0.0,-999.0,85,-99.99,,,0.00,Acu-Link.com,2013-06-30 07:02:00,
2013-06-30 03:17:00,70.9,66.2,29.52,ESE,112,0.0,-999.0,85,-99.99,,,0.00,Acu-Link.com,2013-06-30 07:17:00,
2013-06-30 03:32:00,70.9,66.5,29.52,ESE,112,0.0,-999.0,86,-99.99,,,0.00,Acu-Link.com,2013-06-30 07:32:00,
2013-06-30 03:47:00,70.7,66.3,29.52,ESE,112,0.0,-999.0,86,-99.99,,,0.00,Acu-Link.com,2013-06-30 07:47:00,
2013-06-30 04:03:00,70.7,66.3,29.52,East,90,0.0,-999.0,86,-99.99,,,0.00,Acu-Link.com,2013-06-30 08:03:00,
2013-06-30 04:18:00,70.7,66.3,29.52,ESE,112,0.0,-999.0,86,-99.99,,,0.00,Acu-Link.com,2013-06-30 08:18:00,
2013-06-30 04:33:00,70.9,66.5,29.52,ESE,112,0.0,-999.0,86,-99.99,,,0.00,Acu-Link.com,2013-06-30 08:33:00,
2013-06-30 04:48:00,70.9,66.5,29.52,East,90,0.0,-999.0,86,-99.99,,,0.00,Acu-Link.com,2013-06-30 08:48:00,
2013-06-30 05:03:00,70.9,66.2,29.51,ENE,67,0.0,-999.0,85,-99.99,,,0.00,Acu-Link.com,2013-06-30 09:03:00,
2013-06-30 05:18:00,70.9,66.2,29.52,East,90,0.0,-999.0,85,-99.99,,,0.00,Acu-Link.com,2013-06-30 09:18:00,
2013-06-30 05:33:00,70.9,66.2,29.54,ESE,112,0.0,-999.0,85,-99.99,,,0.00,Acu-Link.com,2013-06-30 09:33:00,
2013-06-30 05:48:00,70.9,65.8,29.54,ENE,67,0.0,-999.0,84,-99.99,,,0.00,Acu-Link.com,2013-06-30 09:48:00,
2013-06-30 06:03:00,70.9,65.8,29.54,WSW,247,0.0,-999.0,84,-99.99,,,0.00,Acu-Link.com,2013-06-30 10:03:00,
2013-06-30 06:19:00,70.9,65.8,29.54,South,180,0.0,-999.0,84,-99.99,,,0.00,Acu-Link.com,2013-06-30 10:19:00,
2013-06-30 06:34:00,70.9,66.2,29.55,NNW,337,0.0,-999.0,85,-99.99,,,0.00,Acu-Link.com,2013-06-30 10:34:00,
2013-06-30 06:49:00,70.7,66.0,29.55,NNW,337,0.0,-999.0,85,-99.99,,,0.00,Acu-Link.com,2013-06-30 10:49:00,
2013-06-30 07:04:00,70.5,65.8,29.55,NW,315,0.0,-999.0,85,-99.99,,,0.00,Acu-Link.com,2013-06-30 11:04:00,
2013-06-30 07:19:00,70.7,66.3,29.55,NNW,337,0.0,-999.0,86,-99.99,,,0.00,Acu-Link.com,2013-06-30 11:19:00,
2013-06-30 07:34:00,71.1,66.7,29.56,ESE,112,0.0,-999.0,86,-99.99,,,0.00,Acu-Link.com,2013-06-30 11:34:00,
2013-06-30 07:49:00,71.4,66.6,29.56,SSW,202,0.0,-999.0,85,-99.99,,,0.00,Acu-Link.com,2013-06-30 11:49:00,
2013-06-30 08:04:00,73.0,67.5,29.56,SSW,202,0.0,-999.0,83,-99.99,,,0.00,Acu-Link.com,2013-06-30 12:04:00,
2013-06-30 08:19:00,74.1,68.2,29.57,ESE,112,0.0,-999.0,82,-99.99,,,0.00,Acu-Link.com,2013-06-30 12:19:00,
2013-06-30 08:35:00,74.7,67.7,29.58,SSW,202,0.0,-999.0,79,-99.99,,,0.00,Acu-Link.com,2013-06-30 12:35:00,
2013-06-30 08:50:00,75.2,67.9,29.57,ESE,112,1.1,-999.0,78,-99.99,,,0.00,Acu-Link.com,2013-06-30 12:50:00,
2013-06-30 09:05:00,76.8,68.6,29.57,NNW,337,1.7,-999.0,76,-99.99,,,0.00,Acu-Link.com,2013-06-30 13:05:00,
2013-06-30 09:20:00,78.1,69.1,29.58,South,180,1.7,-999.0,74,-99.99,,,0.00,Acu-Link.com,2013-06-30 13:20:00,
2013-06-30 09:35:00,78.8,69.0,29.58,SSW,202,0.0,-999.0,72,-99.99,,,0.00,Acu-Link.com,2013-06-30 13:35:00,
2013-06-30 09:50:00,80.4,69.3,29.58,South,180,1.7,-999.0,69,-99.99,,,0.00,Acu-Link.com,2013-06-30 13:50:00,
2013-06-30 10:05:00,81.5,69.5,29.58,East,90,0.0,-999.0,67,-99.99,,,0.00,Acu-Link.com,2013-06-30 14:05:00,
2013-06-30 10:20:00,82.2,69.7,29.57,West,270,0.0,-999.0,66,-99.99,,,0.00,Acu-Link.com,2013-06-30 14:20:00,
2013-06-30 10:35:00,83.3,70.3,29.58,SSW,202,1.7,-999.0,65,-99.99,,,0.00,Acu-Link.com,2013-06-30 14:35:00,
2013-06-30 10:50:00,81.9,70.7,29.57,West,270,1.1,-999.0,69,-99.99,,,0.00,Acu-Link.com,2013-06-30 14:50:00,
2013-06-30 11:06:00,85.1,70.1,29.58,WNW,292,0.0,-999.0,61,-99.99,,,0.00,Acu-Link.com,2013-06-30 15:06:00,
2013-06-30 11:21:00,84.0,70.5,29.57,South,180,2.7,-999.0,64,-99.99,,,0.00,Acu-Link.com,2013-06-30 15:21:00,
2013-06-30 11:36:00,83.8,70.3,29.57,West,270,1.1,-999.0,64,-99.99,,,0.00,Acu-Link.com,2013-06-30 15:36:00,
2013-06-30 11:51:00,84.9,71.8,29.58,South,180,1.1,-999.0,65,-99.99,,,0.00,Acu-Link.com,2013-06-30 15:51:00,
2013-06-30 12:06:00,84.6,70.6,29.58,SSE,157,0.0,-999.0,63,-99.99,,,0.00,Acu-Link.com,2013-06-30 16:06:00,
2013-06-30 12:21:00,84.4,69.5,29.58,SSW,202,1.1,-999.0,61,-99.99,,,0.00,Acu-Link.com,2013-06-30 16:21:00,
2013-06-30 12:36:00,87.6,69.9,29.57,SSW,202,1.7,-999.0,56,-99.99,,,0.00,Acu-Link.com,2013-06-30 16:36:00,
2013-06-30 12:51:00,87.3,69.1,29.56,SSW,202,0.0,-999.0,55,-99.99,,,0.00,Acu-Link.com,2013-06-30 16:51:00,
2013-06-30 13:06:00,84.6,70.6,29.57,SW,225,2.2,-999.0,63,-99.99,,,0.00,Acu-Link.com,2013-06-30 17:06:00,
2013-06-30 13:22:00,83.7,71.6,29.57,WNW,292,0.0,-999.0,67,-99.99,,,0.00,Acu-Link.com,2013-06-30 17:22:00,
2013-06-30 13:37:00,81.5,70.7,29.56,SW,225,2.2,-999.0,70,-99.99,,,0.00,Acu-Link.com,2013-06-30 17:37:00,
2013-06-30 13:52:00,85.5,72.4,29.57,WSW,247,0.0,-999.0,65,-99.99,,,0.00,Acu-Link.com,2013-06-30 17:52:00,
2013-06-30 14:07:00,83.7,71.6,29.56,NE,45,1.7,-999.0,67,-99.99,,,0.00,Acu-Link.com,2013-06-30 18:07:00,
2013-06-30 14:22:00,86.9,69.3,29.55,East,90,1.7,-999.0,56,-99.99,,,0.00,Acu-Link.com,2013-06-30 18:22:00,
2013-06-30 14:37:00,87.1,68.9,29.55,ENE,67,0.0,-999.0,55,-99.99,,,0.00,Acu-Link.com,2013-06-30 18:37:00,
2013-06-30 14:52:00,86.7,68.6,29.55,South,180,2.2,-999.0,55,-99.99,,,0.00,Acu-Link.com,2013-06-30 18:52:00,
2013-06-30 15:07:00,89.4,65.9,29.54,SSW,202,1.1,-999.0,46,-99.99,,,0.00,Acu-Link.com,2013-06-30 19:07:00,
2013-06-30 15:22:00,90.5,64.2,29.54,SSE,157,0.0,-999.0,42,-99.99,,,0.00,Acu-Link.com,2013-06-30 19:22:00,
2013-06-30 15:38:00,89.8,66.8,29.54,South,180,0.0,-999.0,47,-99.99,,,0.00,Acu-Link.com,2013-06-30 19:38:00,
2013-06-30 15:53:00,86.0,67.4,29.53,SSE,157,0.0,-999.0,54,-99.99,,,0.00,Acu-Link.com,2013-06-30 19:53:00,
2013-06-30 16:08:00,90.0,65.8,29.53,SSW,202,0.0,-999.0,45,-99.99,,,0.00,Acu-Link.com,2013-06-30 20:08:00,
2013-06-30 16:23:00,91.8,67.4,29.53,South,180,1.7,-999.0,45,-99.99,,,0.00,Acu-Link.com,2013-06-30 20:23:00,
2013-06-30 16:38:00,91.8,66.1,29.53,NNE,22,0.0,-999.0,43,-99.99,,,0.00,Acu-Link.com,2013-06-30 20:38:00,
2013-06-30 16:53:00,90.9,68.5,29.53,WSW,247,0.0,-999.0,48,-99.99,,,0.00,Acu-Link.com,2013-06-30 20:53:00,
2013-06-30 17:08:00,88.0,68.7,29.54,SSW,202,0.0,-999.0,53,-99.99,,,0.00,Acu-Link.com,2013-06-30 21:08:00,
2013-06-30 17:23:00,85.6,68.6,29.54,SW,225,0.0,-999.0,57,-99.99,,,0.00,Acu-Link.com,2013-06-30 21:23:00,
2013-06-30 17:38:00,84.4,69.0,29.54,South,180,0.0,-999.0,60,-99.99,,,0.00,Acu-Link.com,2013-06-30 21:38:00,
2013-06-30 17:54:00,82.9,69.0,29.55,West,270,0.0,-999.0,63,-99.99,,,0.00,Acu-Link.com,2013-06-30 21:54:00,
2013-06-30 18:09:00,81.9,68.5,29.56,East,90,0.0,-999.0,64,-99.99,,,0.00,Acu-Link.com,2013-06-30 22:09:00,
2013-06-30 18:24:00,80.6,69.5,29.56,ENE,67,0.0,-999.0,69,-99.99,,,0.00,Acu-Link.com,2013-06-30 22:24:00,
2013-06-30 18:39:00,78.6,70.0,29.56,East,90,0.0,-999.0,75,-99.99,,,0.00,Acu-Link.com,2013-06-30 22:39:00,
2013-06-30 18:54:00,77.4,70.0,29.57,SE,135,0.0,-999.0,78,-99.99,,,0.01,Acu-Link.com,2013-06-30 22:54:00,
2013-06-30 19:09:00,76.5,70.2,29.58,South,180,0.0,-999.0,81,-99.99,,,0.01,Acu-Link.com,2013-06-30 23:09:00,
2013-06-30 19:24:00,75.7,70.2,29.58,SSE,157,0.0,-999.0,83,-99.99,,,0.03,Acu-Link.com,2013-06-30 23:24:00,
2013-06-30 19:39:00,75.0,69.5,29.59,WNW,292,0.0,-999.0,83,-99.99,,,0.03,Acu-Link.com,2013-06-30 23:39:00,
2013-06-30 19:54:00,74.1,68.6,29.59,WNW,292,1.7,-999.0,83,-99.99,,,0.03,Acu-Link.com,2013-06-30 23:54:00,
2013-06-30 20:10:00,73.6,68.1,29.59,South,180,1.7,-999.0,83,-99.99,,,0.03,Acu-Link.com,2013-07-01 00:10:00,
2013-06-30 20:25:00,73.2,68.1,29.59,SSW,202,1.7,-999.0,84,-99.99,,,0.03,Acu-Link.com,2013-07-01 00:25:00,
2013-06-30 20:40:00,72.9,68.1,29.60,NE,45,0.0,-999.0,85,-99.99,,,0.03,Acu-Link.com,2013-07-01 00:40:00,
2013-06-30 20:55:00,72.7,67.9,29.61,South,180,1.7,-999.0,85,-99.99,,,0.03,Acu-Link.com,2013-07-01 00:55:00,
2013-06-30 21:10:00,72.5,68.1,29.61,SE,135,0.0,-999.0,86,-99.99,,,0.03,Acu-Link.com,2013-07-01 01:10:00,
2013-06-30 21:25:00,72.3,67.9,29.61,South,180,1.7,-999.0,86,-99.99,,,0.03,Acu-Link.com,2013-07-01 01:25:00,
2013-06-30 21:40:00,72.1,68.0,29.62,ENE,67,1.1,-999.0,87,-99.99,,,0.03,Acu-Link.com,2013-07-01 01:40:00,
2013-06-30 21:55:00,72.1,67.7,29.63,SW,225,1.7,-999.0,86,-99.99,,,0.03,Acu-Link.com,2013-07-01 01:55:00,
2013-06-30 22:10:00,72.0,67.6,29.63,SSW,202,0.0,-999.0,86,-99.99,,,0.03,Acu-Link.com,2013-07-01 02:10:00,
2013-06-30 22:25:00,71.8,67.0,29.64,South,180,2.2,-999.0,85,-99.99,,,0.03,Acu-Link.com,2013-07-01 02:25:00,
2013-06-30 22:41:00,71.6,66.8,29.64,SSW,202,0.0,-999.0,85,-99.99,,,0.03,Acu-Link.com,2013-07-01 02:41:00,
2013-06-30 22:56:00,71.2,66.8,29.63,ESE,112,0.0,-999.0,86,-99.99,,,0.03,Acu-Link.com,2013-07-01 02:56:00,
2013-06-30 23:11:00,71.2,66.8,29.65,WSW,247,0.0,-999.0,86,-99.99,,,0.03,Acu-Link.com,2013-07-01 03:11:00,
2013-06-30 23:26:00,71.2,66.8,29.63,NNW,337,0.0,-999.0,86,-99.99,,,0.03,Acu-Link.com,2013-07-01 03:26:00,
2013-06-30 23:41:00,71.2,66.8,29.63,NNW,337,0.0,-999.0,86,-99.99,,,0.03,Acu-Link.com,2013-07-01 03:41:00,
2013-06-30 23:56:00,71.1,66.7,29.63,NNE,22,0.0,-999.0,86,-99.99,,,0.03,Acu-Link.com,2013-07-01 03:56:00,